Flag for Russia Weather past 2 weeks in Krasnoyarsk, Russia

Now
84 °F

Broken clouds.


Feels Like: 83 °F
Forecast: 58 / 77 °F
Wind: 13 mph from Southwest

Location: Abakan

Current Time: Jul 23, 2014 at 4:32:55 PM

Latest Report: Jul 23, 2014 at 4:00 PM


Visibility: N/A

Pressure: 29.53 "Hg

Humidity: 40%

Dew point: 57 °F

Location of KrasnoyarskLocation

Historic Weather in Krasnoyarsk — Graph

°F

Krasnoyarsk temperature yesterday

Maximum temperature yesterday: 90 °F (at 4:00 PM)
Minimum temperature yesterday: 59 °F (at 6:00 AM)
Average temperature yesterday: 75 °F

Past Weeks' High & Low Weather Summary

 TemperatureHumidityPressure
High97 °F (Jul 12, 4:30 PM)94% (Jul 11, 3:00 AM)29.95 "Hg (Jul 11, 3:00 AM)
Low55 °F (Jul 19, 2:30 AM)16% (Jul 8, 6:30 PM)29.50 "Hg (Jul 16, 4:00 AM)
Average72 °F58%29.74 "Hg
* Reported Jul 8 1:00 PM — Jul 23 1:30 PM, Krasnoyarsk, Weather by CustomWeather, © 2014

Note: Actual official high and low records may vary slightly from our data, if they occured in-between our weather recording intervals... More about our weather records

Advertising

Krasnoyarsk weather history for previous 24 hours

 ConditionsComfort  
Time TempWeatherWind HumidityBarometerVisibility
1:30 PM
Jul 23
84 °FScattered clouds.3 mph35%29.53 "HgN/A
1:00 PM82 °FScattered clouds.3 mph37%29.56 "HgN/A
12:30 PM81 °FScattered clouds.3 mph42%29.56 "HgN/A
12:00 PM81 °FScattered clouds.1 mph42%29.56 "HgN/A
11:30 AM79 °FPartly sunny.1 mph48%29.56 "HgN/A
11:00 AM77 °FPartly sunny.No wind51%29.56 "HgN/A
10:30 AM75 °FPartly sunny.No wind54%29.59 "HgN/A
10:00 AM75 °FPartly sunny.No wind57%29.59 "HgN/A
9:30 AM73 °FPartly sunny.No wind61%29.62 "HgN/A
9:00 AM70 °FPartly sunny.No wind69%29.62 "HgN/A
8:30 AM68 °FSunny.No wind73%29.62 "Hg10 mi
8:00 AM66 °FSunny.No wind78%29.62 "Hg10 mi
7:00 AM61 °FSunny.No wind88%29.65 "Hg10 mi
1:00 AM68 °FPartly cloudy.3 mph69%29.68 "HgN/A
12:30 AM70 °FPartly cloudy.3 mph60%29.68 "HgN/A
12:00 AM68 °FPartly cloudy.6 mph69%29.68 "HgN/A
11:30 PM
Jul 22
73 °FPartly cloudy.3 mph53%29.71 "HgN/A
11:00 PM73 °FBroken clouds.6 mph53%29.71 "HgN/A
10:30 PM75 °FBroken clouds.8 mph50%29.71 "HgN/A
10:00 PM73 °FThundershowers. Broken clouds.3 mph65%29.68 "HgN/A
9:30 PM75 °FBroken clouds.1 mph65%29.68 "HgN/A
9:00 PM75 °FBroken clouds.3 mph57%29.68 "HgN/A
8:30 PM75 °FThundershowers. Broken clouds.1 mph57%29.68 "HgN/A
8:00 PM77 °FThundershowers. More clouds than sun.13 mph51%29.71 "HgN/A
7:30 PM81 °FThunderstorms. More clouds than sun.10 mph39%29.68 "HgN/A
7:00 PM84 °FThundershowers. Broken clouds.3 mph48%29.65 "HgN/A
6:30 PM88 °FThundershowers. Broken clouds.1 mph31%29.65 "HgN/A
6:00 PM88 °FBroken clouds.3 mph33%29.65 "HgN/A
5:30 PM88 °FBroken clouds.1 mph35%29.65 "HgN/A
5:00 PM88 °FBroken clouds.1 mph35%29.65 "HgN/A
4:30 PM88 °FBroken clouds.3 mph29%29.62 "HgN/A
4:00 PM90 °FBroken clouds.3 mph27%29.62 "HgN/A
Weather by CustomWeather, © 2014

See weather overviewHow to use our weather pages